Temp
63 63 62 62 62 63 63 63 63 63 63 63 63 63 63 63 63 67 72 83 81 81 81 86 87 86 86 83 87 82 63 57 64 63 67 80 77 82 83 77 81 82 80 81 84
62 62 62 62 62 63 63 62 63 63 63 63 62 63 63 63 63 69 81 83 82 81 84 83 84 85 78 82 82 74 62 64 71 72 70 79 77 76 76 73 74 80 82 83 81
62 62 62 61 62 62 62 62 62 61 62 62 62 63 63 62 66 78 82 84 82 81 87 85 85 81 74 79 80 77 67 76 76 78 82 78 78 80 71 69 72 73 77 80 80
61 61 61 61 62 61 61 62 61 61 62 62 63 63 63 60 65 83 83 82 82 85 86 83 80 73 71 73 82 75 81 81 79 80 81 76 78 74 75 73 77 78 81 81 80
61 61 61 61 61 61 61 61 61 61 61 62 63 63 61 62 71 86 82 83 84 85 83 79 76 72 69 76 82 76 79 84 82 81 81 81 77 77 75 79 80 82 83 81 80
61 61 61 60 61 61 61 61 60 60 61 62 63 64 59 62 86 87 84 82 85 83 82 81 80 79 76 76 76 82 81 83 83 81 82 76 74 77 76 79 79 80 78 78 78
60 61 61 60 60 60 60 60 60 60 61 62 64 66 63 71 88 84 83 81 82 83 81 84 84 76 79 77 83 82 77 80 80 80 78 79 70 71 76 79 78 79 79 80 79
60 60 60 60 60 60 59 59 59 61 62 64 65 61 61 83 82 86 84 82 85 84 83 86 84 80 74 78 80 74 73 64 75 79 79 74 61 73 76 75 74 78 82 84 81
60 60 60 60 59 59 58 58 60 63 64 65 57 57 63 84 80 85 86 86 84 82 83 96 84 75 77 68 63 66 60 64 70 79 77 72 63 71 73 74 73 75 80 80 79
59 59 60 59 59 58 57 59 62 63 64 69 73 61 71 78 82 89 88 90 83 81 82 76 71 65 63 60 53 59 63 69 66 74 76 70 67 70 73 73 70 71 78 79 78
59 59 59 59 58 57 55 57 61 60 61 66 67 71 79 81 86 87 90 86 80 74 66 72 63 59 65 68 72 70 68 67 71 79 73 68 66 67 70 70 68 70 72 79 78
59 59 59 58 58 58 54 56 68 73 63 73 77 78 85 81 78 85 87 79 74 68 67 65 59 71 74 76 72 70 69 66 71 80 73 66 64 68 69 69 69 75 71 73 78
58 59 58 58 57 53 52 62 72 76 60 73 73 75 79 81 78 81 85 78 72 67 67 62 70 78 75 74 71 66 62 67 69 73 71 65 58 63 68 69 71 72 75 74 78
58 58 57 57 52 58 60 68 68 75 55 66 70 80 82 83 77 91 88 81 72 70 69 66 78 76 74 71 73 59 76 77 73 64 54 65 48 58 61 63 67 70 73 73 76
58 58 56 56 50 60 75 70 70 71 48 75 71 87 82 78 76 80 89 80 72 73 69 68 72 71 70 73 77 70 75 71 69 60 56 62 52 56 60 59 65 69 72 74 76
58 57 56 53 52 56 65 67 73 57 51 71 80 76 75 73 79 83 82 80 82 73 70 70 79 75 74 80 78 80 68 64 58 53 54 54 56 55 56 61 66 70 74 75 76
56 54 54 62 62 69 70 70 56 49 73 72 70 74 71 70 74 78 74 69 66 57 58 68 71 76 79 70 74 70 57 49 51 46 46 50 56 57 67 73 72 71 72 76 75
54 53 52 60 60 66 69 62 48 67 69 76 76 73 69 71 71 74 69 65 69 64 57 56 57 69 78 73 68 62 59 51 44 44 53 52 52 63 72 75 77 78 76 73 73
53 51 55 62 63 64 65 52 56 64 75 74 72 67 65 73 72 70 67 66 70 69 62 57 61 75 78 76 75 66 59 64 55 48 50 53 60 69 70 70 73 77 77 75 74
55 61 66 74 71 67 60 52 63 74 75 75 63 67 60 67 67 66 63 73 73 75 70 66 58 69 76 77 73 71 69 57 52 45 44 53 54 52 62 66 71 74 73 73 75
60 64 74 75 73 64 54 57 70 79 79 70 66 64 64 65 66 64 70 75 81 78 73 66 62 71 71 65 66 65 61 58 56 54 49 47 53 62 64 65 68 72 73 73 75
57 61 76 77 62 56 57 66 71 78 78 75 72 70 66 67 64 64 66 70 82 79 68 69 60 55 64 75 75 68 65 58 51 51 50 49 54 68 67 69 70 72 75 74 77
55 59 76 76 56 57 64 71 75 75 74 74 72 71 68 63 60 66 69 78 79 75 68 67 57 54 61 62 70 66 65 58 56 51 49 47 52 70 68 68 71 72 76 74 73
58 59 64 67 62 59 61 65 69 79 77 76 73 73 69 64 62 61 65 75 77 75 72 70 58 57 52 57 62 62 65 63 58 50 49 53 57 66 66 70 71 69 68 75 75
59 55 57 54 61 60 57 66 68 66 72 72 68 69 63 57 59 59 64 65 72 70 69 64 58 55 59 64 67 67 67 66 58 60 53 57 61 64 64 68 73 73 69 70 72
53 52 55 53 57 60 58 60 66 68 67 64 62 68 65 56 56 56 59 57 59 66 63 61 57 57 59 67 66 63 68 67 66 63 60 60 61 68 70 70 67 69 69 70 72
56 58 55 52 57 56 58 63 66 66 67 71 67 62 61 64 65 63 63 63 64 58 59 57 55 53 49 60 61 55 64 65 65 64 64 58 65 70 67 69 68 68 69 72 72
MSLP
1018.34 1018.09 1017.84 1017.63 1017.39 1017.15 1016.87 1016.54 1016.25 1015.88 1015.63 1015.36 1015.14 1014.84 1014.47 1014.03 1013.17 1012.91 1011.98 1009.59 1009.30 1008.92 1009.23 1009.05 1009.01 1008.99 1009.09 1008.99 1008.77 1009.11 1010.29 1011.43 1011.65 1011.73 1010.60 1009.40 1009.47 1009.81 1010.06 1010.18 1010.19 1009.93 1010.15 1010.92 1011.92
1018.41 1018.17 1017.88 1017.58 1017.28 1016.99 1016.78 1016.61 1016.30 1016.00 1015.73 1015.43 1015.12 1014.76 1014.40 1014.03 1013.42 1011.77 1008.92 1008.63 1008.66 1008.82 1009.27 1009.04 1008.92 1009.02 1009.22 1008.61 1008.57 1008.68 1009.67 1010.03 1009.94 1010.05 1009.67 1009.16 1009.20 1009.76 1010.17 1010.39 1010.37 1009.78 1010.45 1011.18 1012.11
1018.43 1018.18 1017.91 1017.64 1017.27 1016.88 1016.64 1016.44 1016.22 1016.04 1015.80 1015.45 1015.12 1014.79 1014.44 1014.16 1013.12 1009.45 1007.76 1008.05 1008.43 1008.77 1008.84 1008.90 1009.01 1009.52 1009.32 1008.59 1007.70 1007.89 1008.34 1008.51 1008.89 1008.91 1008.70 1008.83 1009.20 1009.58 1010.25 1010.71 1010.61 1010.62 1011.02 1011.60 1012.00
1018.41 1018.13 1017.86 1017.54 1017.24 1016.92 1016.55 1016.25 1016.10 1015.87 1015.63 1015.35 1015.03 1014.71 1014.39 1014.06 1011.73 1008.01 1007.51 1007.53 1008.42 1008.81 1008.76 1008.85 1009.16 1009.52 1009.35 1008.58 1007.19 1007.17 1007.00 1007.43 1007.94 1008.19 1008.27 1008.64 1009.06 1009.70 1009.90 1009.82 1010.21 1010.42 1010.88 1011.39 1011.85
1018.32 1018.03 1017.75 1017.44 1017.12 1016.81 1016.47 1016.18 1015.93 1015.72 1015.53 1015.27 1014.94 1014.63 1014.25 1013.31 1010.26 1007.53 1007.58 1007.92 1008.52 1008.91 1008.78 1008.93 1009.17 1009.14 1008.93 1008.29 1007.28 1006.96 1006.80 1006.82 1007.25 1007.59 1007.86 1008.26 1008.64 1008.93 1009.56 1009.76 1010.14 1010.45 1010.84 1011.25 1011.75
1018.25 1017.90 1017.57 1017.27 1016.91 1016.58 1016.27 1015.95 1015.67 1015.49 1015.28 1015.06 1014.84 1014.72 1014.21 1011.97 1007.80 1007.36 1007.78 1008.33 1008.44 1008.79 1008.61 1008.70 1008.48 1008.71 1008.70 1007.92 1007.51 1006.99 1006.60 1006.63 1007.01 1007.22 1007.54 1008.09 1008.70 1009.05 1009.49 1009.89 1010.40 1010.63 1010.69 1011.10 1011.44
1018.22 1017.80 1017.34 1017.03 1016.73 1016.38 1016.03 1015.69 1015.38 1015.14 1014.97 1014.82 1014.59 1014.43 1013.45 1009.60 1007.63 1007.69 1007.90 1008.00 1008.11 1008.32 1008.49 1008.02 1008.35 1008.77 1008.41 1007.61 1007.09 1007.03 1007.06 1006.77 1006.67 1007.02 1007.43 1008.14 1009.08 1009.13 1009.18 1009.62 1010.13 1010.51 1010.58 1010.66 1011.23
1017.99 1017.61 1017.23 1016.87 1016.46 1016.08 1015.70 1015.30 1015.01 1014.73 1014.54 1014.35 1014.35 1014.13 1011.96 1007.89 1007.68 1007.99 1007.91 1008.08 1007.85 1008.01 1008.11 1007.67 1008.07 1008.50 1008.16 1007.88 1007.55 1007.81 1007.47 1007.28 1006.79 1006.84 1007.41 1008.10 1008.78 1008.82 1009.09 1009.41 1009.91 1010.04 1010.23 1010.06 1010.74
1017.77 1017.41 1017.01 1016.66 1016.29 1015.85 1015.24 1014.69 1014.32 1014.21 1014.23 1014.26 1014.30 1013.64 1010.74 1007.43 1007.43 1006.80 1007.35 1007.72 1007.66 1007.84 1007.80 1007.69 1008.10 1008.34 1008.44 1008.98 1009.13 1008.58 1008.18 1007.46 1006.93 1006.81 1007.37 1008.20 1008.97 1008.91 1009.85 1010.23 1010.07 1009.88 1009.77 1009.71 1010.26
1017.53 1017.11 1016.73 1016.37 1016.05 1015.62 1014.87 1013.96 1013.72 1013.86 1014.14 1014.07 1013.41 1013.13 1009.70 1007.31 1006.26 1006.12 1006.56 1007.08 1007.61 1007.83 1008.24 1008.20 1008.59 1008.90 1009.43 1009.93 1009.96 1009.08 1008.50 1007.29 1007.01 1006.77 1007.36 1008.20 1008.89 1009.60 1010.35 1011.38 1010.74 1010.40 1009.66 1009.57 1010.13
1017.16 1016.78 1016.43 1016.06 1015.78 1015.53 1014.74 1013.93 1014.02 1013.77 1013.13 1011.42 1010.51 1009.61 1008.02 1006.69 1006.07 1006.10 1006.01 1006.73 1007.43 1008.25 1008.84 1008.61 1009.46 1009.50 1009.06 1009.33 1008.89 1008.76 1008.22 1007.62 1006.50 1006.31 1007.10 1008.08 1009.31 1009.44 1009.96 1010.38 1011.24 1009.80 1009.58 1009.74 1009.30
1016.88 1016.38 1016.04 1015.73 1015.49 1015.41 1015.46 1014.16 1011.47 1010.65 1010.71 1009.28 1008.93 1008.35 1007.02 1006.81 1006.63 1006.00 1005.90 1006.89 1007.50 1008.38 1008.68 1009.27 1009.13 1008.48 1008.40 1008.29 1008.48 1008.12 1007.74 1006.90 1006.57 1006.55 1007.76 1009.23 1010.18 1010.08 1009.87 1008.42 1008.80 1008.31 1008.53 1008.97 1009.08
1016.44 1015.99 1015.61 1015.31 1015.03 1015.13 1014.42 1011.92 1009.76 1009.73 1010.08 1008.02 1007.40 1007.11 1006.37 1006.21 1006.14 1005.63 1005.93 1006.50 1007.37 1008.18 1008.67 1009.05 1007.87 1007.48 1007.80 1007.12 1007.45 1007.17 1006.90 1006.59 1006.78 1007.24 1008.16 1009.25 1010.22 1009.98 1009.56 1009.57 1008.72 1008.81 1008.52 1008.36 1008.41
1015.89 1015.47 1015.16 1014.85 1015.18 1013.84 1012.65 1009.24 1009.76 1010.26 1010.08 1007.56 1006.46 1005.13 1005.07 1005.11 1005.31 1004.74 1005.25 1006.41 1007.37 1007.65 1008.28 1008.50 1006.98 1007.37 1007.00 1007.01 1006.38 1006.38 1005.89 1006.57 1007.21 1007.95 1008.56 1008.76 1010.06 1009.72 1009.78 1009.30 1008.85 1008.26 1008.08 1008.38 1008.26
1015.26 1015.01 1014.78 1014.78 1014.58 1013.12 1009.65 1009.51 1009.29 1009.85 1009.09 1006.10 1005.40 1003.80 1004.13 1004.92 1004.53 1004.62 1004.76 1005.82 1006.62 1007.03 1007.90 1007.38 1006.76 1006.47 1006.02 1005.48 1005.12 1005.71 1006.20 1006.89 1007.73 1008.42 1009.47 1009.78 1009.99 1008.81 1009.33 1009.33 1008.23 1007.49 1007.58 1007.68 1008.01
1014.56 1014.39 1014.34 1014.44 1014.36 1010.96 1009.73 1009.27 1009.61 1009.92 1007.53 1005.33 1004.19 1004.10 1004.62 1004.75 1004.57 1004.60 1005.07 1005.53 1005.79 1006.74 1007.06 1006.85 1006.01 1005.82 1005.02 1004.53 1004.62 1005.01 1006.59 1007.68 1008.88 1009.84 1010.27 1009.84 1010.07 1008.87 1008.96 1007.37 1006.34 1006.41 1006.19 1006.59 1007.28
1013.69 1013.60 1013.88 1013.11 1011.40 1009.80 1009.29 1009.58 1010.21 1009.27 1006.21 1004.87 1004.37 1004.34 1004.68 1004.91 1004.83 1005.06 1005.59 1006.05 1006.35 1007.01 1007.36 1006.46 1005.67 1004.78 1004.44 1004.53 1004.34 1005.14 1007.21 1008.76 1010.14 1011.16 1011.04 1010.20 1010.13 1008.69 1006.45 1005.87 1005.33 1005.08 1005.23 1005.85 1006.27
1012.54 1012.63 1012.45 1011.40 1010.25 1010.16 1009.90 1010.39 1009.72 1007.56 1005.89 1004.37 1004.15 1004.49 1004.84 1004.80 1004.86 1005.08 1005.68 1006.28 1006.20 1006.61 1007.35 1007.23 1005.59 1004.18 1003.26 1003.60 1004.15 1005.37 1007.01 1008.57 1009.94 1011.26 1010.47 1009.88 1009.13 1006.28 1004.38 1004.45 1004.36 1004.02 1004.65 1005.25 1005.80
1011.65 1012.04 1011.88 1009.37 1009.93 1010.65 1010.81 1010.61 1009.15 1007.01 1005.30 1004.45 1004.35 1004.83 1005.36 1004.85 1004.76 1005.24 1005.53 1005.60 1005.41 1005.91 1006.69 1006.45 1005.22 1003.60 1003.03 1002.66 1003.60 1004.92 1006.25 1006.94 1008.75 1009.95 1010.14 1009.17 1007.88 1005.98 1005.09 1004.49 1004.59 1003.87 1003.73 1004.84 1005.54
1012.01 1011.49 1010.11 1007.98 1009.12 1010.05 1010.69 1010.23 1008.14 1006.17 1004.81 1004.46 1004.92 1005.24 1005.42 1005.02 1004.95 1005.20 1005.18 1004.53 1004.72 1004.80 1005.23 1005.40 1005.61 1003.64 1003.11 1002.79 1003.39 1004.05 1004.88 1006.86 1008.66 1009.87 1010.15 1009.47 1008.46 1007.22 1005.78 1005.34 1005.20 1004.67 1004.14 1004.05 1004.46
1011.98 1011.13 1008.43 1008.06 1009.00 1010.28 1010.71 1009.40 1007.33 1005.46 1004.47 1004.53 1004.73 1005.07 1005.33 1005.48 1005.04 1005.02 1004.61 1004.04 1003.58 1003.61 1004.11 1004.86 1005.45 1004.19 1003.68 1003.60 1003.59 1004.19 1004.85 1006.50 1008.28 1009.40 1010.02 1009.91 1008.52 1007.03 1005.51 1005.99 1006.17 1005.36 1004.88 1004.11 1004.49
1012.52 1011.24 1008.42 1008.38 1009.94 1010.51 1010.26 1008.47 1006.63 1005.18 1004.45 1004.56 1004.72 1005.24 1005.78 1005.91 1005.78 1005.37 1004.87 1003.98 1003.20 1002.86 1003.90 1004.51 1005.20 1005.43 1004.71 1003.90 1003.37 1004.20 1005.36 1006.44 1008.25 1009.53 1009.64 1009.84 1008.51 1007.95 1007.33 1007.11 1006.49 1005.10 1005.41 1004.74 1004.63
1013.71 1011.69 1008.78 1008.79 1010.34 1010.80 1009.74 1008.31 1007.00 1005.98 1005.15 1004.95 1005.21 1005.55 1005.87 1006.39 1006.52 1006.05 1005.62 1004.69 1003.91 1003.64 1003.84 1004.17 1005.40 1006.04 1005.32 1005.23 1004.15 1004.77 1005.29 1005.95 1007.36 1008.57 1009.54 1010.04 1009.06 1007.66 1007.48 1007.35 1006.60 1005.62 1004.95 1005.23 1005.16
1014.00 1012.78 1011.17 1010.59 1010.74 1010.82 1010.31 1008.91 1007.52 1006.24 1005.87 1005.73 1006.00 1005.97 1006.52 1006.89 1007.04 1007.02 1006.61 1005.80 1005.48 1004.87 1004.57 1004.63 1005.78 1006.39 1006.36 1006.02 1005.58 1005.25 1005.35 1005.96 1006.69 1008.16 1009.09 1008.91 1008.47 1007.33 1007.38 1006.58 1006.49 1006.36 1006.08 1004.46 1005.48
1014.37 1014.77 1014.22 1013.23 1011.97 1011.77 1010.80 1009.48 1008.52 1007.95 1007.40 1007.14 1007.25 1008.00 1007.96 1008.29 1008.26 1008.18 1007.81 1007.23 1006.26 1006.11 1006.20 1006.36 1006.62 1006.29 1006.31 1006.20 1005.52 1005.13 1005.16 1005.48 1006.32 1006.97 1007.83 1007.92 1007.53 1007.13 1007.09 1006.46 1005.82 1005.67 1006.11 1006.32 1005.88
1016.02 1016.08 1015.16 1014.45 1013.38 1012.33 1011.33 1010.45 1009.58 1008.99 1008.70 1008.83 1009.15 1008.87 1008.70 1009.07 1009.23 1009.21 1008.98 1008.68 1008.27 1007.28 1007.71 1007.57 1007.72 1007.49 1006.99 1006.21 1005.85 1005.51 1005.07 1005.06 1005.77 1006.54 1006.96 1007.11 1006.83 1006.03 1006.06 1005.56 1005.79 1005.91 1006.24 1006.75 1007.14
1017.08 1016.46 1016.23 1015.15 1014.30 1013.30 1012.57 1011.53 1010.80 1009.92 1009.51 1009.37 1009.30 1009.19 1009.13 1009.11 1008.93 1008.85 1008.94 1008.91 1008.76 1008.87 1008.72 1008.82 1008.68 1008.94 1008.34 1007.21 1006.35 1005.75 1004.84 1004.99 1005.42 1006.09 1006.48 1006.70 1005.90 1005.34 1006.19 1005.57 1005.36 1005.42 1005.86 1006.31 1006.19
Wind_Speed
11 11 12 11 11 11 11 12 13 13 14 14 14 14 13 14 16 3 6 11 7 6 3 5 4 5 3 5 6 6 4 3 4 6 6 4 3 3 2 6 3 4 8 18 16
12 11 12 12 12 12 12 12 12 13 13 14 14 14 13 13 3 7 11 12 10 8 3 4 7 7 5 9 6 4 4 8 7 6 5 4 5 4 3 3 6 14 15 19 20
12 12 12 12 12 13 13 13 13 13 13 13 13 12 11 9 4 9 5 16 9 9 3 3 4 3 5 5 7 5 5 6 8 6 5 5 6 6 8 0 4 14 18 18 19
13 13 12 12 13 13 14 14 14 13 13 13 12 11 11 2 4 3 5 13 11 5 5 2 3 1 4 6 5 4 6 6 7 6 4 7 8 5 6 6 11 13 12 15 15
14 14 14 13 13 14 14 15 15 14 14 12 11 10 3 2 11 3 8 10 7 4 6 1 3 1 4 6 6 1 3 7 9 7 5 8 6 6 5 9 13 11 13 13 12
15 15 15 14 14 15 15 15 15 14 13 11 8 6 1 4 6 6 9 7 6 6 5 5 8 0 8 4 2 4 3 4 9 8 9 8 4 6 4 9 9 9 8 8 10
15 16 16 16 15 16 16 15 16 15 12 9 6 3 1 15 4 6 6 7 5 6 6 5 4 1 7 9 5 7 7 1 9 6 5 9 0 7 6 12 14 12 8 6 9
14 15 16 16 17 18 17 16 16 14 10 7 3 2 9 6 4 7 5 4 6 6 5 9 3 6 2 4 10 5 4 2 3 7 6 9 8 7 7 8 9 10 9 14 13
15 15 17 16 17 18 18 20 17 10 5 2 2 1 12 12 6 11 10 9 6 5 6 10 4 3 7 4 7 4 6 6 3 7 7 5 6 6 5 2 5 6 6 15 18
15 17 17 16 16 16 19 18 2 1 2 4 5 4 6 5 4 5 8 10 5 3 6 3 4 2 5 6 6 5 5 4 5 5 6 7 5 9 9 9 5 5 9 18 17
17 17 17 16 15 13 10 3 3 2 2 11 9 5 5 5 3 4 7 6 5 5 5 6 3 8 12 9 12 9 13 9 3 7 8 9 4 9 11 11 19 7 3 10 17
18 18 17 16 14 10 3 3 7 7 7 16 13 9 9 4 3 7 7 6 5 6 2 6 7 13 10 12 9 12 11 6 4 3 6 4 1 5 8 12 21 16 11 6 13
18 18 17 16 12 3 4 11 2 8 1 8 8 7 7 10 9 11 11 5 4 5 6 8 15 4 6 15 9 7 4 5 4 3 6 7 5 5 4 7 13 12 6 7 14
19 18 15 15 3 2 6 6 4 3 5 8 5 8 5 5 5 9 9 8 3 10 5 7 18 13 14 10 13 6 1 8 6 4 4 5 6 6 5 14 12 14 13 8 9
20 16 13 5 5 3 6 7 8 5 4 4 4 2 7 8 2 2 9 4 8 8 6 13 7 7 7 10 6 10 9 5 3 1 1 2 3 7 6 8 17 18 15 9 12
21 16 10 2 3 11 11 8 4 7 4 3 6 7 6 3 6 4 7 2 5 4 3 10 7 5 8 7 5 4 5 5 5 4 4 4 3 7 5 11 7 14 13 12 10
17 9 4 2 6 4 5 6 7 3 6 4 5 8 7 7 5 7 7 7 6 2 6 8 8 8 5 5 6 4 7 4 4 6 7 3 4 10 12 10 12 11 17 17 11
19 5 9 7 1 7 5 6 3 6 7 3 5 6 9 6 7 6 6 6 7 4 3 4 11 5 5 12 11 5 9 7 4 4 9 4 7 9 11 8 5 10 7 9 10
14 1 3 7 7 3 7 4 7 4 6 5 6 5 5 4 4 7 9 10 9 11 9 4 9 5 7 5 11 7 4 9 4 2 2 3 5 8 10 6 7 9 6 14 15
3 1 4 1 9 5 6 5 5 3 1 7 6 3 1 4 5 7 2 5 5 9 5 8 4 3 6 4 1 9 3 1 3 1 3 4 6 8 8 6 9 7 4 6 13
2 4 5 8 5 6 3 6 6 7 0 2 1 2 2 4 4 2 7 5 5 3 10 5 5 19 0 2 9 3 4 4 6 4 3 1 8 4 12 2 4 7 7 10 10
3 3 3 5 5 1 2 5 6 13 4 6 3 5 4 3 5 4 3 3 9 5 2 5 7 2 7 7 3 7 5 5 7 6 3 5 6 11 12 7 6 7 5 8 6
2 3 3 7 1 3 7 7 3 12 5 4 4 2 2 2 4 3 8 9 15 3 3 2 1 3 11 9 8 5 2 4 5 3 2 5 7 7 5 7 7 6 6 6 7
3 4 6 5 0 3 6 5 7 7 7 7 4 7 8 7 2 4 9 6 9 10 8 5 4 8 8 8 5 4 1 1 6 4 3 5 5 3 5 8 4 10 14 6 5
5 2 1 4 5 7 3 4 6 9 6 11 9 10 3 7 8 5 6 6 11 8 10 5 5 3 5 7 3 5 5 2 3 6 6 6 5 4 6 12 11 10 7 15 2
4 4 5 4 5 6 7 5 5 6 6 4 4 8 8 4 2 5 4 3 5 9 8 6 4 6 6 5 6 3 8 6 2 2 4 4 5 8 6 1 5 8 6 9 6
4 4 4 5 7 5 5 6 8 4 4 2 1 3 5 1 2 4 5 7 8 4 2 2 3 5 5 4 4 4 4 4 3 4 7 7 10 6 7 9 12 11 9 10 8
Wind_Direction
1 356 348 344 341 338 333 331 330 329 331 331 334 333 329 325 312 148 245 223 192 211 188 288 248 276 286 261 194 135 76 151 205 172 240 278 146 50 78 102 160 223 148 163 159
3 357 350 345 339 335 332 329 325 327 330 330 330 330 329 333 317 259 229 234 231 170 209 276 287 333 321 285 297 107 127 205 184 178 228 187 111 111 88 29 31 112 124 137 141
360 356 350 344 339 332 328 327 328 326 326 325 326 326 323 325 329 251 217 216 182 175 260 302 302 15 299 256 237 187 188 177 176 208 243 134 112 128 127 31 211 126 145 152 149
357 354 348 343 338 331 326 324 324 322 324 325 325 324 320 296 222 278 313 199 155 173 295 318 5 14 272 299 292 145 249 151 150 200 178 156 141 126 196 201 169 169 174 161 161
354 349 345 340 337 330 325 320 318 317 320 321 320 324 327 9 252 235 98 123 120 150 243 263 309 141 246 301 315 192 280 141 148 166 170 137 170 176 199 154 186 185 164 170 170
351 347 340 335 331 330 324 319 315 314 314 313 306 312 245 263 241 164 132 136 159 172 243 189 229 175 269 274 304 280 250 134 164 185 166 150 201 142 161 159 179 202 205 165 190
348 342 337 332 328 324 321 313 310 308 306 306 289 257 279 236 325 130 155 187 179 173 230 229 224 48 294 326 347 339 304 213 180 174 166 114 10 213 191 164 177 194 217 216 179
329 333 333 329 326 323 315 307 304 299 297 291 179 237 249 249 255 263 198 290 206 218 229 275 325 278 290 319 341 341 323 202 261 167 156 105 257 226 185 164 197 209 218 214 170
326 330 331 328 324 322 311 304 295 281 251 156 141 170 268 305 172 223 172 212 195 242 257 267 268 213 2 36 348 8 256 221 275 194 144 129 261 254 86 335 256 293 306 161 172
325 333 330 327 326 323 315 303 266 304 199 201 261 332 281 248 218 191 176 189 175 204 332 345 38 32 360 74 246 274 314 256 203 225 184 187 239 75 78 345 312 20 297 166 190
327 332 328 325 325 331 346 5 26 355 235 200 193 233 271 242 17 215 220 135 114 92 194 275 100 245 241 216 245 260 273 266 238 222 162 188 151 168 145 100 290 241 56 216 187
329 328 325 322 320 322 319 208 214 156 293 229 234 258 280 52 316 247 106 150 117 199 210 352 259 243 248 260 249 263 258 289 273 323 62 41 308 269 227 198 221 219 167 203 211
329 326 322 320 316 278 214 228 116 43 345 284 190 207 226 144 211 221 141 165 155 207 204 192 243 247 240 283 278 267 220 280 188 88 129 136 319 254 239 257 254 265 227 188 178
328 326 322 322 303 268 243 243 213 115 54 274 187 259 191 177 252 190 171 144 192 213 224 230 255 247 260 254 258 260 350 108 103 106 214 168 246 255 205 245 244 249 240 203 222
325 322 320 303 312 220 234 20 133 63 23 153 184 222 154 157 217 211 172 100 203 230 116 253 298 266 258 237 185 237 111 128 147 147 84 278 87 273 119 246 245 246 232 221 222
320 317 314 166 221 246 306 306 75 44 275 240 160 166 109 239 249 60 155 110 209 233 237 235 257 213 229 270 220 232 83 49 56 46 351 236 140 287 189 219 255 232 253 245 217
312 285 228 245 223 332 285 41 53 136 303 223 177 150 171 207 251 155 169 200 187 83 277 314 276 280 205 277 329 115 57 341 345 12 226 58 28 245 270 238 227 205 221 224 204
321 230 211 228 275 354 41 55 117 236 272 12 146 137 176 179 237 176 138 204 267 160 94 212 318 201 227 191 199 172 147 162 215 222 289 125 207 239 240 230 239 214 199 177 199
324 125 189 249 178 160 71 70 213 246 304 14 24 89 317 265 189 150 202 210 217 174 175 186 264 291 246 180 143 260 201 191 157 18 230 224 283 331 299 344 342 299 268 205 178
351 340 256 202 138 73 75 236 247 245 333 34 63 103 349 292 207 159 194 244 247 185 177 244 284 233 316 55 286 164 186 97 16 237 278 320 309 241 283 282 322 5 80 106 158
35 32 266 111 77 51 151 243 280 276 119 79 252 307 322 337 345 259 214 254 193 209 138 213 156 274 214 194 210 271 290 41 122 127 184 200 260 287 211 223 15 25 358 131 140
3 32 256 91 53 147 213 219 274 291 22 31 56 42 64 330 347 341 292 215 269 151 153 243 132 288 251 293 227 118 137 122 109 291 113 165 299 20 27 29 339 98 20 41 182
51 269 345 88 61 326 299 296 315 7 357 28 358 84 108 20 358 344 352 324 358 17 187 266 68 19 349 356 5 91 46 116 113 102 139 105 282 329 68 47 338 331 144 95 66
62 29 334 31 174 25 339 309 326 344 20 342 49 22 10 352 19 14 352 340 345 1 358 67 142 156 188 210 218 318 129 169 114 102 193 180 224 144 340 313 319 329 317 122 161
26 2 110 320 323 334 266 309 349 7 17 18 22 22 321 29 358 12 357 328 333 22 2 54 252 121 224 215 248 219 270 282 123 186 137 215 221 206 197 230 199 231 281 307 196
63 32 345 286 302 321 359 347 43 357 19 23 57 346 51 88 142 303 352 3 261 324 357 356 309 5 313 351 41 174 244 256 198 174 115 207 232 176 206 119 123 229 223 280 278
322 334 107 284 339 24 347 344 29 15 336 79 325 9 348 268 230 233 220 236 230 240 322 294 49 25 266 323 352 347 195 217 235 180 165 197 215 185 188 171 185 214 230 232 206